Regional Weather Roundup
Issued by NWS Cleveland, OH

Home | Current Version | Previous Version | Graphics & Text | Print | Product List | Glossary On
Versions: 1 2 3 4 5 6 7 8 9 10 11 12 13 14 15 16 17 18 19 20 21 22 23 24 25 26 27 28 29 30 31 32 33 34 35 36 37 38 39 40 41 42 43 44 45 46 47 48 49 50
000
ASUS41 KCLE 131510
RWRCLE
OHIO REGIONAL WEATHER ROUNDUP
NATIONAL WEATHER SERVICE WILMINGTON, OH
1000 AM EST WED DEC 13 2017

NOTE: "FAIR" INDICATES FEW OR NO CLOUDS BELOW 12,000 FEET WITH NO
SIGNIFICANT WEATHER AND/OR OBSTRUCTIONS TO VISIBILITY.

OHZ001>008-015>018-024>027-034-035-043-044-131600-
   NORTHWEST OHIO

CITY           SKY/WX    TMP DP  RH WIND       PRES   REMARKS
DEFIANCE       CLOUDY    21  10  62 S10       29.76F WCI  10
FINDLAY        CLOUDY    21   9  59 S14       29.78F WCI   8
TOLEDO EXPRESS LGT SNOW  19  13  77 S9        29.79S WCI   8
TOLEDO EXEC    LGT SNOW  20  12  71 S10       29.80F WCI   9
LIMA           CLOUDY    20  11  68 S12       29.78F WCI   8
$$

OHZ009>014-019>023-028>033-038-089-131600-
   NORTHEAST OHIO

CITY           SKY/WX    TMP DP  RH WIND       PRES   REMARKS
CLE-HOPKINS    CLOUDY    20  12  71 SW9       29.84F WCI   9
CLE-LAKEFRONT  CLOUDY    21  10  62 SW14      29.81F WCI   8
CUY CO. ARPT   SNOWSHWR  19  12  73 SW14      29.81F WCI   6
LORAIN-ELYRIA  CLOUDY    19  10  68 SW9       29.81F WCI   8
ASHTABULA      LGT SNOW  18  14  84 SW6       29.79F FOG     WCI  10
AKRON-CANTON   PTSUNNY   19  11  70 SW10      29.81S WCI   7
WOOSTER        PTSUNNY   20  12  71 SW12      29.81F WCI   8
MANSFIELD      CLOUDY    19  11  70 S10       29.79F WCI   7
YOUNGSTOWN     FLURRIES  16   9  74 SW14      29.78F WCI   2
$$

OHZ042-051>053-060>062-070>072-077>081-131600-
  SOUTHWEST OHIO

CITY           SKY/WX    TMP DP  RH WIND       PRES   REMARKS
CINC-COVINGTON CLOUDY    25  12  58 S13       29.83F WCI  14
CINC-LUNKEN    CLOUDY    25  11  55 S12       29.89F WCI  14
HAMILTON       PTSUNNY   26  11  52 S6        29.87F WCI  19
DAYTON         PTSUNNY   21  11  65 S10       29.82F WCI  10
WRIGHT-PAT AFB CLOUDY    23   8  52 S10       29.82F WCI  12
DAYTON GENERAL CLOUDY    22  11  62 S13       29.82F WCI  10
WILMINGTON     CLOUDY    22  11  62 S15       29.83F WCI   9
$$

OHZ036-037-039>041-045>050-054>059-063>069-073>076-082>088-131600-
  CENTRAL AND SOUTHEAST OHIO

CITY           SKY/WX    TMP DP  RH WIND       PRES   REMARKS
COLUMBUS       CLOUDY    20  13  74 S10       29.86F WCI   9
OSU AIRPORT    CLOUDY    20  13  74 S10       29.83F WCI   9
BOLTON FIELD   CLOUDY    19  12  73 S12       29.86F WCI   7
RICKENBACK AFB CLOUDY    20  12  69 S14       29.86F WCI   7
NEWARK         CLOUDY    20  11  68 S10       29.86F WCI   9
MARION         NOT AVBL
LANCASTER      CLOUDY    20  11  68 S9        29.87F WCI   9
ZANESVILLE     CLOUDY    21   9  59 SW8       29.87F WCI  11
NEW PHILLY     PTSUNNY   21  12  68 VRB7      29.86S WCI  12
$$




USA.gov is the U.S. government's official web portal to all federal, state and local government web resources and services.